Temp
-17 -18 -18 -18 -18 -18 -18 -18 -18 -18 -18 -18 -18 -18 -17 -17 -16 -17 -17 -17 -16 -16 -16 -15 -16 -15 -15 -14 -14 -14 -14 -14 -14 -13 -13 -13 -13 -13 -12 -12 -12 -12 -13
-17 -18 -18 -18 -18 -18 -18 -18 -18 -18 -18 -18 -18 -18 -17 -17 -16 -17 -17 -17 -17 -17 -17 -16 -16 -16 -15 -15 -15 -14 -14 -14 -14 -14 -13 -13 -13 -13 -13 -13 -13 -13 -13
-18 -18 -18 -18 -18 -18 -18 -19 -19 -19 -18 -18 -18 -18 -18 -18 -17 -17 -17 -17 -17 -17 -17 -17 -16 -16 -16 -15 -15 -15 -15 -15 -15 -14 -14 -14 -13 -13 -13 -13 -13 -13 -13
-18 -18 -18 -18 -18 -18 -18 -18 -18 -18 -18 -18 -18 -18 -18 -17 -17 -17 -16 -17 -17 -17 -17 -17 -17 -17 -16 -16 -16 -15 -15 -15 -15 -15 -15 -14 -14 -13 -13 -13 -13 -13 -13
-18 -18 -18 -18 -18 -18 -18 -18 -18 -18 -18 -17 -17 -18 -17 -17 -17 -17 -17 -17 -17 -17 -17 -17 -17 -17 -17 -17 -16 -16 -15 -15 -15 -15 -15 -14 -14 -14 -14 -14 -13 -13 -13
-18 -18 -18 -18 -18 -18 -18 -18 -17 -17 -17 -17 -17 -17 -17 -17 -17 -17 -17 -17 -17 -18 -17 -17 -17 -17 -17 -17 -17 -16 -16 -16 -15 -15 -15 -15 -14 -14 -14 -14 -14 -14 -14
-18 -18 -18 -18 -18 -18 -18 -18 -17 -17 -17 -17 -17 -17 -17 -17 -17 -17 -17 -17 -18 -18 -18 -17 -17 -17 -17 -17 -17 -17 -17 -16 -16 -16 -15 -15 -15 -15 -14 -14 -14 -14 -13
-17 -17 -17 -18 -18 -18 -18 -18 -18 -18 -18 -18 -18 -18 -17 -18 -18 -18 -18 -18 -18 -18 -18 -18 -18 -18 -17 -17 -17 -17 -17 -17 -17 -16 -16 -16 -15 -15 -15 -14 -14 -14 -14
-17 -17 -17 -17 -17 -18 -18 -18 -18 -18 -18 -19 -19 -19 -18 -18 -19 -19 -19 -19 -18 -18 -18 -19 -18 -19 -18 -17 -18 -18 -18 -18 -18 -17 -16 -16 -16 -15 -15 -15 -14 -14 -14
-18 -18 -18 -18 -18 -18 -17 -18 -18 -19 -19 -19 -19 -20 -19 -19 -19 -19 -20 -19 -19 -19 -19 -19 -19 -19 -19 -18 -18 -18 -18 -18 -18 -18 -17 -16 -16 -16 -15 -15 -15 -14 -14
-18 -18 -18 -18 -18 -18 -18 -19 -19 -19 -19 -19 -19 -20 -20 -20 -20 -20 -19 -20 -19 -20 -20 -20 -19 -19 -19 -19 -18 -18 -18 -18 -18 -18 -18 -17 -16 -16 -16 -15 -15 -15 -15
-18 -18 -18 -18 -18 -18 -19 -19 -19 -19 -19 -19 -19 -19 -20 -20 -20 -20 -20 -20 -20 -20 -20 -20 -20 -19 -20 -20 -19 -19 -18 -18 -18 -18 -18 -18 -18 -17 -16 -16 -15 -15 -15
-19 -19 -19 -19 -19 -19 -19 -19 -19 -19 -19 -19 -19 -20 -20 -20 -21 -21 -21 -21 -21 -21 -20 -20 -20 -20 -20 -20 -20 -20 -19 -19 -18 -18 -18 -18 -18 -18 -17 -16 -16 -15 -15
-18 -19 -19 -19 -20 -20 -20 -20 -20 -20 -20 -20 -20 -21 -22 -22 -22 -22 -23 -23 -22 -22 -22 -20 -21 -21 -20 -20 -21 -21 -20 -19 -19 -18 -18 -18 -18 -18 -18 -17 -17 -16 -16
-19 -19 -19 -20 -20 -20 -20 -20 -20 -20 -20 -22 -23 -23 -24 -24 -24 -24 -24 -24 -24 -23 -23 -22 -22 -21 -22 -21 -21 -21 -21 -20 -19 -19 -18 -18 -18 -19 -19 -19 -18 -17 -16
-19 -20 -20 -20 -21 -20 -20 -20 -21 -21 -22 -24 -24 -25 -25 -25 -25 -24 -25 -24 -24 -24 -24 -23 -22 -22 -22 -22 -21 -21 -21 -20 -19 -19 -19 -19 -19 -19 -19 -19 -19 -18 -17
-20 -20 -21 -21 -21 -21 -21 -21 -23 -24 -25 -26 -26 -26 -26 -26 -26 -26 -26 -25 -25 -25 -24 -24 -23 -23 -22 -22 -21 -21 -21 -21 -20 -19 -20 -20 -19 -19 -19 -19 -19 -19 -18
-20 -20 -21 -21 -21 -21 -23 -24 -25 -25 -26 -26 -26 -27 -27 -27 -26 -26 -26 -26 -26 -25 -25 -24 -24 -23 -23 -22 -22 -22 -22 -21 -20 -20 -20 -20 -19 -19 -19 -19 -19 -19 -19
-20 -21 -21 -21 -22 -23 -25 -25 -26 -26 -27 -27 -27 -27 -27 -27 -27 -27 -27 -27 -27 -26 -26 -25 -25 -24 -24 -23 -22 -22 -22 -22 -20 -20 -20 -19 -19 -19 -19 -19 -19 -19 -18
-21 -21 -21 -22 -23 -25 -26 -26 -27 -27 -27 -27 -28 -29 -29 -29 -29 -29 -29 -29 -29 -29 -27 -26 -26 -25 -24 -24 -22 -22 -23 -22 -21 -20 -20 -19 -19 -19 -19 -19 -19 -18 -18
-21 -21 -22 -23 -25 -26 -26 -27 -27 -27 -28 -28 -29 -29 -30 -30 -30 -30 -31 -31 -30 -28 -26 -26 -26 -25 -25 -24 -22 -22 -23 -22 -21 -20 -20 -19 -19 -19 -19 -19 -18 -18 -18
-21 -22 -23 -25 -25 -26 -27 -27 -27 -28 -28 -29 -29 -30 -30 -31 -31 -31 -31 -30 -28 -27 -27 -26 -26 -26 -25 -24 -23 -23 -23 -22 -21 -21 -20 -19 -19 -19 -19 -19 -18 -18 -18
-22 -22 -24 -25 -26 -26 -27 -27 -28 -28 -29 -29 -30 -30 -31 -31 -31 -31 -30 -29 -28 -27 -26 -26 -26 -25 -25 -24 -23 -23 -22 -22 -21 -20 -20 -19 -19 -19 -19 -19 -19 -18 -18
-22 -23 -24 -25 -26 -27 -27 -27 -28 -28 -29 -29 -30 -30 -31 -31 -31 -30 -30 -29 -27 -27 -27 -26 -26 -26 -25 -24 -23 -23 -23 -22 -21 -20 -20 -19 -19 -19 -19 -20 -19 -19 -19
-22 -23 -24 -25 -26 -27 -27 -27 -28 -28 -29 -30 -30 -30 -31 -30 -30 -29 -29 -29 -28 -28 -27 -27 -26 -26 -25 -24 -23 -23 -23 -22 -21 -21 -20 -19 -19 -20 -20 -19 -19 -19 -19
-22 -23 -24 -25 -26 -26 -27 -27 -28 -28 -29 -30 -30 -30 -30 -30 -29 -29 -29 -28 -28 -28 -27 -27 -26 -26 -24 -23 -23 -23 -22 -22 -21 -21 -20 -20 -20 -20 -20 -19 -19 -19 -19
Height
5721 5721 5720 5719 5719 5718 5718 5718 5719 5720 5721 5724 5726 5727 5728 5731 5732 5736 5738 5740 5743 5747 5750 5752 5754 5757 5759 5761 5765 5768 5771 5775 5778 5782 5786 5788 5791 5795 5797 5799 5801 5804 5807
5712 5712 5711 5711 5711 5711 5710 5710 5710 5712 5712 5714 5716 5718 5719 5721 5723 5725 5728 5731 5733 5735 5739 5742 5745 5748 5750 5753 5756 5759 5762 5766 5770 5774 5778 5782 5784 5788 5790 5793 5795 5799 5802
5705 5704 5702 5701 5701 5702 5702 5702 5702 5702 5703 5705 5707 5708 5710 5711 5712 5715 5717 5720 5723 5725 5728 5731 5734 5737 5740 5744 5747 5749 5753 5757 5762 5766 5769 5773 5777 5780 5784 5787 5790 5794 5796
5699 5698 5695 5692 5691 5692 5692 5693 5694 5695 5695 5696 5697 5698 5700 5701 5703 5705 5707 5709 5712 5715 5717 5719 5722 5725 5729 5732 5736 5739 5743 5747 5752 5756 5761 5764 5769 5772 5776 5781 5783 5787 5790
5692 5690 5689 5687 5684 5682 5683 5683 5684 5684 5685 5686 5688 5689 5689 5690 5691 5693 5695 5699 5701 5704 5707 5709 5712 5715 5718 5721 5725 5729 5733 5737 5742 5746 5752 5756 5760 5764 5768 5773 5777 5781 5784
5684 5681 5680 5679 5676 5676 5675 5674 5673 5673 5673 5674 5674 5676 5677 5678 5679 5680 5682 5684 5689 5692 5695 5698 5701 5704 5708 5711 5714 5718 5722 5726 5731 5736 5741 5747 5751 5755 5760 5764 5769 5774 5778
5678 5675 5673 5672 5670 5668 5666 5664 5663 5662 5661 5661 5660 5661 5662 5663 5665 5667 5670 5673 5675 5679 5682 5685 5689 5692 5695 5699 5704 5707 5710 5714 5719 5724 5730 5736 5742 5746 5751 5757 5762 5767 5772
5670 5669 5667 5665 5662 5659 5658 5655 5653 5651 5650 5648 5647 5646 5647 5649 5651 5654 5656 5658 5662 5665 5668 5670 5672 5677 5680 5685 5690 5695 5700 5703 5707 5713 5719 5725 5731 5737 5743 5748 5754 5759 5765
5661 5658 5656 5653 5651 5649 5646 5643 5640 5638 5636 5635 5634 5632 5630 5632 5635 5637 5640 5642 5645 5650 5654 5657 5661 5664 5665 5669 5676 5682 5688 5692 5697 5701 5707 5714 5721 5727 5733 5740 5746 5751 5758
5651 5648 5644 5641 5637 5633 5630 5628 5625 5622 5619 5618 5617 5616 5615 5615 5618 5621 5623 5624 5628 5632 5638 5643 5647 5651 5654 5657 5663 5670 5675 5681 5687 5692 5696 5702 5710 5716 5724 5730 5737 5743 5749
5644 5638 5633 5628 5623 5618 5613 5609 5606 5603 5601 5600 5599 5598 5597 5596 5597 5599 5605 5609 5612 5618 5622 5627 5633 5639 5643 5646 5651 5657 5663 5669 5676 5682 5687 5691 5698 5705 5713 5720 5727 5734 5740
5634 5627 5621 5615 5609 5603 5598 5593 5589 5585 5582 5580 5579 5578 5578 5577 5578 5578 5580 5588 5595 5600 5604 5610 5617 5625 5631 5635 5639 5644 5651 5657 5664 5671 5677 5682 5687 5694 5702 5710 5717 5723 5730
5623 5615 5608 5601 5593 5587 5581 5576 5571 5566 5562 5558 5555 5553 5553 5554 5554 5556 5559 5564 5571 5581 5587 5593 5601 5609 5618 5623 5629 5632 5637 5645 5652 5659 5667 5672 5678 5683 5690 5698 5706 5713 5719
5611 5603 5595 5587 5578 5570 5563 5556 5551 5545 5538 5534 5529 5527 5527 5529 5531 5532 5535 5541 5546 5556 5568 5577 5584 5593 5603 5610 5617 5622 5625 5633 5639 5647 5655 5662 5668 5674 5680 5687 5695 5702 5709
5596 5587 5579 5570 5561 5552 5544 5536 5528 5520 5512 5507 5503 5502 5502 5503 5507 5511 5514 5519 5524 5533 5546 5558 5567 5576 5587 5595 5604 5611 5616 5620 5627 5634 5642 5650 5658 5665 5670 5677 5685 5692 5699
5582 5573 5563 5553 5544 5534 5523 5513 5502 5493 5487 5480 5477 5476 5478 5479 5483 5488 5492 5497 5502 5511 5524 5537 5549 5559 5571 5580 5589 5599 5605 5610 5616 5623 5630 5639 5648 5655 5662 5668 5676 5683 5689
5569 5559 5548 5536 5525 5513 5500 5489 5478 5469 5463 5458 5455 5453 5453 5454 5458 5462 5467 5474 5482 5489 5503 5519 5530 5543 5554 5565 5577 5587 5595 5600 5605 5613 5621 5630 5639 5646 5653 5660 5667 5674 5680
5556 5544 5531 5518 5505 5491 5478 5467 5459 5450 5443 5437 5433 5432 5431 5431 5435 5439 5443 5450 5459 5469 5482 5500 5511 5526 5540 5553 5564 5574 5582 5589 5596 5604 5612 5621 5630 5637 5645 5652 5660 5667 5673
5543 5529 5515 5500 5485 5471 5460 5449 5440 5431 5423 5417 5412 5409 5409 5409 5412 5415 5420 5428 5437 5448 5463 5479 5496 5512 5527 5539 5550 5562 5571 5578 5586 5595 5602 5611 5620 5629 5637 5645 5652 5659 5666
5530 5516 5500 5484 5470 5457 5445 5433 5422 5413 5405 5398 5392 5389 5388 5388 5390 5393 5398 5407 5417 5431 5450 5469 5486 5503 5516 5528 5540 5552 5562 5569 5577 5584 5593 5602 5611 5620 5629 5637 5645 5652 5659
5518 5504 5487 5471 5458 5445 5433 5421 5409 5399 5391 5385 5379 5376 5375 5375 5377 5380 5386 5396 5408 5424 5444 5460 5475 5492 5507 5515 5531 5544 5553 5560 5568 5575 5584 5593 5602 5611 5620 5628 5636 5644 5651
5509 5493 5477 5463 5450 5436 5423 5410 5400 5390 5382 5376 5371 5368 5366 5366 5367 5371 5379 5390 5404 5421 5439 5454 5469 5483 5497 5508 5523 5534 5543 5552 5561 5567 5575 5584 5594 5603 5612 5620 5627 5635 5642
5501 5485 5470 5457 5443 5429 5416 5404 5393 5384 5376 5370 5365 5362 5359 5358 5359 5364 5375 5388 5404 5423 5439 5451 5466 5479 5491 5504 5517 5528 5536 5545 5552 5559 5567 5576 5585 5594 5603 5611 5619 5626 5633
5497 5481 5467 5453 5440 5426 5412 5400 5389 5379 5372 5365 5361 5358 5356 5354 5357 5365 5376 5391 5408 5425 5437 5450 5462 5474 5486 5500 5512 5521 5530 5537 5547 5553 5560 5570 5579 5587 5595 5603 5611 5618 5625
5494 5478 5465 5452 5439 5425 5411 5398 5387 5378 5371 5365 5361 5358 5356 5357 5363 5370 5377 5392 5410 5422 5432 5445 5459 5473 5484 5497 5508 5516 5523 5533 5541 5547 5554 5563 5572 5580 5589 5596 5604 5611 5618
5494 5478 5465 5452 5440 5428 5414 5400 5389 5381 5374 5368 5363 5360 5360 5363 5369 5378 5388 5397 5410 5421 5432 5445 5460 5472 5483 5495 5503 5511 5520 5528 5536 5542 5549 5558 5567 5575 5583 5591 5598 5604 5609
Wind_Speed
31 32 34 34 31 29 31 34 36 39 42 45 46 47 48 47 47 44 43 42 41 39 38 39 38 39 40 41 41 40 39 37 34 36 37 35 34 31 30 32 31 29 29
25 28 33 34 31 32 35 33 31 34 37 40 43 46 48 48 48 47 44 43 43 41 38 39 41 42 42 42 43 43 41 40 37 36 38 38 37 35 33 30 31 32 31
27 27 27 31 34 34 34 36 34 35 35 36 39 41 44 47 48 46 45 44 44 44 43 42 42 41 44 46 46 45 45 42 41 38 38 39 40 39 38 37 34 31 31
27 26 28 28 31 34 35 35 37 37 37 38 39 42 43 44 45 44 44 44 44 45 44 45 45 45 45 45 48 50 48 46 44 41 39 39 41 42 40 39 36 34 35
25 24 23 23 25 26 32 37 39 41 41 41 42 44 46 48 49 49 49 47 47 46 46 44 42 43 44 46 48 48 51 51 49 46 43 41 41 42 42 40 39 37 34
28 26 26 25 24 26 27 31 35 40 46 48 49 48 49 49 49 50 50 50 51 50 51 47 46 46 46 45 46 49 51 52 52 51 48 44 44 43 43 42 41 36 35
27 28 29 30 31 32 34 35 37 38 40 43 44 45 46 50 51 52 53 54 54 53 55 55 55 54 53 52 50 48 47 50 53 54 51 47 45 46 45 44 42 42 39
28 28 29 32 36 37 38 41 44 46 47 47 49 51 53 54 53 51 50 51 50 49 50 55 60 59 59 59 58 53 50 47 51 54 54 50 47 47 47 45 43 42 38
34 34 35 37 39 41 43 45 48 51 53 55 57 59 60 61 56 57 57 56 54 51 50 49 50 52 53 51 56 56 52 49 48 50 54 54 50 48 48 47 45 43 40
37 39 42 45 46 49 51 52 53 54 56 58 59 60 62 63 63 62 62 62 61 58 55 52 50 47 49 51 51 54 54 52 49 45 46 55 53 50 49 48 47 45 44
38 41 44 48 51 53 54 53 51 51 52 54 57 60 62 64 65 65 63 64 63 60 58 54 54 51 44 47 50 51 54 55 53 49 44 45 53 53 52 50 50 48 48
41 44 46 49 50 52 52 52 53 54 55 58 62 66 69 71 72 73 73 69 66 64 61 59 55 54 48 43 45 53 57 57 56 52 47 41 44 52 53 53 53 52 51
45 47 49 50 51 52 53 55 56 58 60 62 64 68 71 73 74 75 77 77 75 70 67 62 59 55 55 50 46 45 51 56 58 55 51 46 41 45 53 54 55 55 55
48 50 51 52 52 53 55 56 58 62 66 68 69 70 70 70 70 70 69 68 70 70 70 67 63 58 55 56 48 47 46 52 56 58 54 49 45 42 48 52 55 57 57
51 53 55 53 52 55 58 60 62 66 67 67 68 71 72 71 68 65 63 62 62 64 66 70 69 63 58 59 53 48 44 48 51 56 57 52 48 45 45 48 50 56 58
52 54 54 53 56 58 60 63 66 64 62 63 65 67 67 69 70 71 71 70 68 67 64 66 71 67 62 60 59 50 45 46 48 50 54 51 48 46 45 44 45 50 54
53 55 55 57 61 62 64 62 60 56 55 53 56 60 63 65 66 68 70 71 71 69 66 65 69 68 64 62 57 52 49 46 49 47 51 50 47 46 45 43 42 42 47
53 56 57 60 62 63 59 53 48 51 52 53 55 57 59 61 62 63 64 65 65 65 64 64 68 69 62 59 54 53 49 50 52 48 50 50 48 48 47 45 42 40 38
55 57 59 61 62 55 50 51 49 47 47 49 51 53 55 57 58 60 60 61 62 62 59 61 65 61 61 60 58 51 45 47 45 50 51 52 50 50 48 47 44 42 40
55 57 59 60 53 48 48 46 44 41 41 41 42 42 42 43 44 45 46 48 49 52 55 57 54 54 55 52 56 49 48 47 47 49 52 51 52 52 50 48 47 45 43
54 55 58 52 48 47 44 43 40 36 34 31 30 29 29 29 30 34 35 39 43 57 52 55 55 61 60 66 55 47 47 51 48 45 52 51 53 53 51 49 48 48 46
51 57 52 45 47 44 43 40 34 31 28 25 23 22 22 24 27 29 35 37 49 62 40 47 55 55 57 57 53 46 46 50 45 42 50 51 51 52 51 49 48 50 50
53 52 46 46 45 44 41 37 32 28 25 23 19 17 18 19 22 30 35 41 64 54 49 46 50 54 57 55 48 41 44 44 44 41 48 52 48 49 50 51 50 49 49
53 48 43 44 43 42 39 35 31 26 23 18 14 12 11 11 23 32 39 58 65 44 42 53 49 54 56 50 43 40 37 44 40 38 44 49 47 45 46 48 48 46 45
52 44 42 42 41 42 41 34 28 23 19 15 10 7 5 16 23 33 46 64 58 43 48 53 54 54 49 42 37 37 39 41 34 34 41 48 46 45 46 47 45 44 43
50 43 41 39 39 41 43 34 28 25 21 16 11 5 6 20 26 34 52 57 60 51 53 55 53 52 46 35 34 34 40 38 32 34 42 48 46 47 47 46 44 45 47
Wind_Direction
281 267 266 267 266 258 257 257 258 253 251 250 252 255 256 257 259 259 260 261 257 251 246 242 242 243 244 243 243 243 244 242 237 236 234 232 231 231 236 236 235 233 233
285 280 270 262 261 256 256 262 257 256 254 254 253 252 254 255 255 258 259 259 259 258 254 250 245 241 242 243 243 242 242 242 238 234 233 233 231 227 231 234 232 233 233
285 285 286 268 262 260 257 258 257 258 258 255 252 251 252 253 254 254 255 255 254 253 252 250 248 246 243 240 242 242 241 240 238 232 230 231 232 230 228 233 236 234 233
288 285 281 283 273 267 258 258 254 249 251 254 256 257 255 254 255 257 256 254 253 253 251 248 248 247 245 244 243 242 242 240 239 237 232 230 231 231 229 229 233 234 231
294 289 283 278 277 279 268 261 256 254 250 250 257 254 256 258 257 258 256 252 253 251 247 247 247 248 248 246 245 244 243 242 240 239 237 232 232 231 231 228 229 233 237
292 287 283 280 278 276 273 268 264 261 259 259 260 258 257 256 256 257 257 257 253 251 250 249 249 251 251 248 248 246 243 242 242 240 238 235 232 232 231 229 229 229 233
283 286 284 283 283 282 279 276 271 268 266 264 260 260 259 258 256 255 255 254 254 253 253 252 251 251 250 252 250 246 245 242 240 240 237 235 232 230 231 229 227 229 230
297 287 281 282 283 281 277 275 274 272 269 267 266 263 261 259 259 257 254 255 254 250 251 254 255 254 253 249 247 244 243 246 241 238 236 234 231 229 228 229 226 228 230
302 298 293 289 285 280 276 275 274 272 269 265 262 261 262 261 261 259 258 256 253 252 252 251 251 250 250 250 241 240 239 241 241 237 234 232 231 227 226 227 226 225 224
306 302 298 294 292 290 286 281 278 273 269 266 265 264 264 263 260 259 259 259 257 255 254 251 249 246 246 248 242 238 237 238 238 237 233 230 228 227 225 225 225 224 224
308 305 301 298 294 291 288 285 282 279 275 269 266 264 263 263 262 259 256 256 257 256 253 250 247 244 244 244 241 236 234 236 237 238 235 232 226 225 225 224 224 223 223
307 305 303 300 295 290 286 283 281 279 278 274 269 265 261 259 259 258 258 255 252 254 253 248 244 241 236 237 240 240 238 236 235 235 236 235 230 224 224 222 224 224 223
307 305 302 299 294 289 285 283 281 280 279 278 274 268 264 261 258 256 255 254 252 249 249 248 244 240 237 231 237 243 238 234 234 233 234 234 233 227 222 221 222 224 225
306 304 303 302 295 291 288 287 286 284 281 278 273 267 263 259 256 254 254 253 251 248 244 243 243 240 238 235 232 236 241 233 232 231 232 232 232 231 225 221 222 223 225
308 308 306 303 298 295 294 290 290 287 281 274 267 263 260 257 255 253 251 252 251 248 244 238 239 236 238 235 232 231 237 234 229 229 230 229 228 228 226 223 221 222 224
311 309 307 303 302 302 299 296 291 285 279 273 267 263 260 257 254 252 250 250 250 249 246 238 233 232 235 233 230 229 231 230 226 223 225 224 221 222 223 223 222 222 224
312 311 308 306 308 306 303 297 293 287 281 274 269 265 261 257 254 251 250 249 247 246 246 233 228 228 231 230 227 227 225 227 223 222 219 218 217 217 220 221 222 221 223
315 314 313 314 311 309 305 301 297 289 282 276 270 266 262 259 255 253 249 247 244 243 241 228 225 225 225 225 222 220 219 225 222 221 217 217 216 215 218 220 219 219 217
319 320 319 317 315 313 309 305 302 294 286 279 273 267 263 260 257 253 249 245 243 239 231 221 218 217 219 219 219 214 214 222 224 218 219 215 215 215 217 219 220 218 219
323 324 321 321 319 318 316 314 310 303 296 289 280 272 265 261 256 250 242 233 225 222 198 190 200 197 214 217 216 213 210 216 224 219 218 215 214 214 216 219 222 221 222
329 328 327 326 327 326 324 321 316 311 306 296 284 274 266 257 246 237 225 216 210 184 173 190 195 199 206 215 214 213 212 214 220 219 215 215 213 213 215 219 222 225 223
335 333 333 334 332 332 330 327 323 318 312 303 290 278 267 257 243 228 208 201 190 179 182 182 195 205 209 216 215 217 213 212 216 218 213 214 213 214 215 217 221 221 221
342 339 341 340 340 339 337 334 330 325 315 308 295 282 273 253 235 199 194 184 177 173 181 182 196 202 209 213 217 214 208 208 212 215 212 211 211 212 215 218 221 221 221
348 347 347 346 348 348 345 341 339 333 327 319 306 289 271 234 181 180 178 172 171 169 177 186 190 209 211 213 211 210 208 204 208 212 211 208 209 211 212 213 214 216 218
354 353 354 353 357 358 357 354 353 353 353 350 340 312 244 174 174 170 173 176 168 172 182 187 196 208 212 205 204 206 203 201 207 212 210 206 207 208 209 211 215 217 218
1 0 0 1 4 4 7 8 9 11 11 11 14 18 157 161 164 166 164 165 180 182 186 190 196 205 209 202 201 201 198 198 206 207 208 208 207 208 211 215 218 219 220